{"data":{"norad_id":56334,"epoch":"2026-05-24T23:51:30.843072Z","epoch_age_seconds":69326,"freshness":"FRESH","line1":"1 56334U 23058T   26144.99410698  .00005022  00000+0  35179-3 0  9998","line2":"2 56334  97.4453 146.1463 0002379  99.0742 261.0755 15.05657394169683","mean_motion":15.05657394,"eccentricity":0.0002379,"inclination_deg":97.4453,"raan_deg":146.1463,"arg_perigee_deg":99.0742,"mean_anomaly_deg":261.0755,"bstar":0.00035179,"rev_number":16968,"period_min":95.639287246777,"perigee_km":547.84039166977,"apogee_km":551.13655587019,"semimajor_km":6927.62547377,"source":"CELESTRAK","updated_at":"2026-05-25T13:38:18.003084Z"}}